Regional Weather Roundup
Issued by NWS

Home | Current Version | Previous Version | Graphics & Text | Print | Product List | Glossary Off
Versions: 1 2 3 4 5 6 7 8 9 10 11 12 13 14 15 16 17 18 19 20 21 22 23 24 25 26 27 28 29 30 31 32 33 34 35 36 37 38 39 40 41 42 43 44 45 46 47 48 49 50

000
ASUS43 KTOP 200059
RWRKS

WEATHER ROUNDUP FOR KANSAS
NATIONAL WEATHER SERVICE GOODLAND KS
800 PM CDT TUE SEP 19 2017

NOTE:  "FAIR" INDICATES FEW OR NO CLOUDS BELOW 12,000 FEET WITH NO
SIGNIFICANT WEATHER AND/OR OBSTRUCTIONS TO VISIBILITY.

KSZ001>006-013>018-027>032-041>047-200200-
NORTHWEST KANSAS

CITY           SKY/WX    TMP DP  RH WIND       PRES   REMARKS
GOODLAND       CLOUDY    76  23  14 SW7       29.57R
HAYS           CLOUDY    86  37  17 S12       29.52S
HILL CITY      CLOUDY    87  35  15 S10       29.51R
RUSSELL        CLOUDY    90  53  28 S21G26    29.52R
$$

KSZ061>065-074>080-084>089-200200-
SOUTHWEST KANSAS

CITY           SKY/WX    TMP DP  RH WIND       PRES   REMARKS
DODGE CITY     CLOUDY    84  30  14 S13       29.60R
ELKHART          N/A     81  34  18 S8          N/A
GARDEN CITY    CLOUDY    80  35  19 S13       29.58R
GREAT BEND     CLOUDY    88  61  40 S22G30    29.56R
LIBERAL        CLOUDY    80  40  23 S13       29.62S
$$

KSZ066>073-081>083-090>101-200200-
SOUTHEAST KANSAS

CITY           SKY/WX    TMP DP  RH WIND       PRES   REMARKS
CHANUTE        CLEAR     82  71  69 SE14      29.73S
COFFEYVILLE    CLEAR     82  71  69 SE13      29.72S
HUTCHINSON     CLEAR     88  67  49 S18G26    29.60R
MEDICINE LODGE   N/A     88  63  43 S16G25    29.60S
NEWTON         CLEAR     86  67  52 S18G25    29.64R
WICHITA INTL   PTCLDY    88  67  49 S18       29.63R
WICHITA JABRA  CLEAR     87  68  52 S14G23    29.65R
WINFIELD       CLEAR     86  70  58 S15G24    29.68R
$$

KSZ007>012-019>026-033>040-048>060-102>105-200200-
NORTHEAST KANSAS

CITY           SKY/WX    TMP DP  RH WIND       PRES   REMARKS
CONCORDIA      CLOUDY    86  67  52 S17G25    29.53S
EMPORIA        CLEAR     82  72  71 S18G26    29.68R
LAWRENCE       CLEAR     80  69  69 SE12      29.69S
MANHATTAN      CLEAR     86  72  62 S17G28    29.58F
OLATHE IND     CLEAR     80  67  64 SE14G23   29.72S
OLATHE EXE     CLEAR     78  70  76 S14       29.73R
SALINA         CLEAR     91  63  39 S18G28    29.56R
TOPEKA BILLARD CLEAR     82  72  71 SE18      29.66R
TOPEKA FORBES  CLEAR     82  72  71 SE14      29.67S
$$



USA.gov is the U.S. government's official web portal to all federal, state and local government web resources and services.